Moore, Oklahoma, United States
Lat: 35.34N, Lon: 97.49W
Wx Zone: OKZ029
Local Info
Past Weather Observations for Wednesday, March 4, 2015

NOTE: This archive is for the closest National Weather Service station to Moore. Information may differ from the station used for current weather conditions.

Click here for Long-term Archive

Time Weather Temperature Dewpoint Humidity Pressure Winds Precip Visibility
23:52
Partly Cloudy
21°F / -6°C 14°F / -10°C 74% 30.42 in
(1030 mb)
N 6.9 mph
(N 11 kph)
- 10SM
22:52
Overcast
25°F / -4°C 18°F / -8°C 74% 30.42 in
(1030 mb)
NNE 8.1 mph
(NNE 13 kph)
- 10SM
21:52
Overcast
25°F / -4°C 18°F / -8°C 74% 30.39 in
(1029 mb)
NE 12.7 mph
(NE 20 kph)
0.01 in
(0.25 mm)
10SM
21:45
Overcast
25°F / -4°C 18°F / -8°C 74% 30.39 in
(1029 mb)
NE 13.8 mph
(NE 22 kph)
0.01 in
(0.25 mm)
9SM
21:38
Overcast
Light Snow
25°F / -4°C 18°F / -8°C 74% 30.39 in
(1029 mb)
NE 10.4 mph
(NE 17 kph)
0.01 in
(0.25 mm)
6SM
21:17
Overcast
Light Snow
25°F / -4°C 19°F / -7°C 80% 30.36 in
(1028 mb)
NE 13.8 mph
(NE 22 kph)
0.01 in
(0.25 mm)
1SM
20:52
Overcast
Light Snow
25°F / -4°C 19°F / -7°C 80% 30.33 in
(1027 mb)
NE 12.7 mph
(NE 20 kph)
0.01 in
(0.25 mm)
3/4SM
20:41
Overcast
Light Snow
25°F / -4°C 19°F / -7°C 80% 30.36 in
(1028 mb)
NNE 17.3 mph
(NNE 28 kph)
0.01 in
(0.25 mm)
3/4SM
20:30
Obscured
Snow
25°F / -4°C 19°F / -7°C 80% 30.36 in
(1028 mb)
NNE 12.7 mph
(NNE 20 kph)
0.01 in
(0.25 mm)
1/2SM
20:08
Obscured
Heavy Snow
25°F / -4°C 19°F / -7°C 80% 30.33 in
(1027 mb)
NE 18.4 mph
(NE 30 kph)
0.00 in
(0.00 mm)
1/4SM
19:52
Obscured
Heavy Snow
25°F / -4°C 19°F / -7°C 80% 30.33 in
(1027 mb)
NNE 17.3 mph
(NNE 28 kph)
0.01 in
(0.25 mm)
1/4SM
19:49
Obscured
Heavy Snow
25°F / -4°C 19°F / -7°C 80% 30.3 in
(1026 mb)
NNE 18.4 mph
(NNE 30 kph)
0.01 in
(0.25 mm)
1/4SM
18:52
Obscured
Light Snow
25°F / -4°C 19°F / -7°C 80% 30.27 in
(1025 mb)
N 16.1 mph
(N 26 kph)
0.01 in
(0.25 mm)
3/4SM
18:47
Obscured
Light Snow
25°F / -4°C 19°F / -7°C 80% 30.3 in
(1026 mb)
N 13.8 mph
(N 22 kph)
0.00 in
(0.00 mm)
3/4SM
18:05
Overcast
Light Snow
25°F / -4°C 19°F / -7°C 80% 30.3 in
(1026 mb)
N 13.8 mph
(N 22 kph)
0.00 in
(0.00 mm)
3/4SM
17:52
Obscured
Light Snow
25°F / -4°C 19°F / -7°C 80% 30.27 in
(1025 mb)
N 13.8 mph
(N 22 kph)
0.01 in
(0.25 mm)
3/4SM
17:40
Obscured
Light Snow
25°F / -4°C 19°F / -7°C 80% 30.27 in
(1025 mb)
N 16.1 mph
(N 26 kph)
0.00 in
(0.00 mm)
3/4SM
17:21
Obscured
Light Snow
25°F / -4°C 19°F / -7°C 80% 30.24 in
(1024 mb)
N 18.4 mph
(N 30 kph)
0.00 in
(0.00 mm)
3/4SM
17:12
Overcast
Light Snow
27°F / -3°C 19°F / -7°C 74% 30.27 in
(1025 mb)
N 17.3 mph
(N 28 kph)
0.00 in
(0.00 mm)
1SM
16:52
Overcast
Light Snow
27°F / -3°C 19°F / -7°C 74% 30.21 in
(1023 mb)
N 20.7 mph
(N 33 kph)
0.00 in
(0.00 mm)
1 1/2SM
16:47
Overcast
Light Snow
27°F / -3°C 19°F / -7°C 74% 30.21 in
(1023 mb)
N 19.6 mph
(N 32 kph)
0.00 in
(0.00 mm)
1 1/2SM
16:32
Overcast
Light Snow
27°F / -3°C 19°F / -7°C 74% 30.21 in
(1023 mb)
N 19.6 mph
(N 32 kph)
0.00 in
(0.00 mm)
1SM
16:19
Overcast
Light Snow
27°F / -3°C 19°F / -7°C 74% 30.21 in
(1023 mb)
N 17.3 mph
(N 28 kph)
0.00 in
(0.00 mm)
1 1/2SM
15:52
Overcast
27°F / -3°C 18°F / -8°C 69% 30.21 in
(1023 mb)
N 23 mph
(N 37 kph)
0.00 in
(0.00 mm)
7SM
14:52
Overcast
Light Snow
27°F / -3°C 18°F / -8°C 69% 30.15 in
(1021 mb)
N 20.7 mph
(N 33 kph)
0.00 in
(0.00 mm)
5SM
13:52
Overcast
Light Snow
27°F / -3°C 18°F / -8°C 69% 30.18 in
(1022 mb)
NNE 25.3 mph
(NNE 41 kph)
0.00 in
(0.00 mm)
9SM
13:35
Overcast
Light Snow
27°F / -3°C 18°F / -8°C 69% 30.18 in
(1022 mb)
N 20.7 mph
(N 33 kph)
0.00 in
(0.00 mm)
9SM
12:52
Overcast
Light Freezing Rain
27°F / -3°C 18°F / -8°C 69% 30.18 in
(1022 mb)
N 24.2 mph
(N 39 kph)
0.00 in
(0.00 mm)
6SM
12:48
Overcast
Light Freezing Rain
27°F / -3°C 19°F / -7°C 74% 30.18 in
(1022 mb)
N 24.2 mph
(N 39 kph)
0.00 in
(0.00 mm)
6SM
11:52
Overcast
Light Freezing Rain
27°F / -3°C 21°F / -6°C 80% 30.18 in
(1022 mb)
N 27.6 mph
(N 44 kph)
0.00 in
(0.00 mm)
5SM
11:13
Overcast
Light Freezing Rain
27°F / -3°C 19°F / -7°C 74% 30.18 in
(1022 mb)
N 25.3 mph
(N 41 kph)
0.00 in
(0.00 mm)
5SM
10:52
Overcast
27°F / -3°C 19°F / -7°C 74% 30.15 in
(1021 mb)
N 26.5 mph
(N 43 kph)
0.00 in
(0.00 mm)
5SM
10:41
Overcast
Freezing Drizzle
27°F / -3°C 19°F / -7°C 74% 30.18 in
(1022 mb)
N 23 mph
(N 37 kph)
0.00 in
(0.00 mm)
6SM
10:29
Overcast
Light Freezing Rain
27°F / -3°C 19°F / -7°C 74% 30.15 in
(1021 mb)
N 18.4 mph
(N 30 kph)
0.00 in
(0.00 mm)
6SM
09:52
Overcast
Light Freezing Rain
28°F / -2°C 19°F / -7°C 69% 30.15 in
(1021 mb)
N 24.2 mph
(N 39 kph)
0.00 in
(0.00 mm)
6SM
09:42
Overcast
28°F / -2°C 19°F / -7°C 69% 30.15 in
(1021 mb)
N 20.7 mph
(N 33 kph)
0.00 in
(0.00 mm)
10SM
08:52
Overcast
30°F / -1°C 19°F / -7°C 64% 30.12 in
(1020 mb)
N 18.4 mph
(N 30 kph)
- 10SM
07:52
Overcast
32°F / 0°C 23°F / -5°C 69% 30.09 in
(1019 mb)
NNE 19.6 mph
(NNE 32 kph)
- 10SM
07:31
Overcast
34°F / 1°C 25°F / -4°C 70% 30.06 in
(1018 mb)
NNE 16.1 mph
(NNE 26 kph)
- 9SM
06:52
Overcast
34°F / 1°C 25°F / -4°C 70% 30.04 in
(1017 mb)
N 19.6 mph
(N 32 kph)
- 10SM
05:52
Overcast
36°F / 2°C 27°F / -3°C 70% 30.04 in
(1017 mb)
N 16.1 mph
(N 26 kph)
0.00 in
(0.00 mm)
10SM
04:52
Overcast
36°F / 2°C 27°F / -3°C 70% 29.98 in
(1015 mb)
N 20.7 mph
(N 33 kph)
- 10SM
03:52
Overcast
37°F / 3°C 28°F / -2°C 70% 29.98 in
(1015 mb)
N 18.4 mph
(N 30 kph)
- 10SM
02:52
Overcast
39°F / 4°C 30°F / -1°C 70% 29.95 in
(1014 mb)
N 16.1 mph
(N 26 kph)
- 10SM
01:52
Overcast
43°F / 6°C 32°F / 0°C 66% 29.92 in
(1013 mb)
N 16.1 mph
(N 26 kph)
- 10SM
00:52
Mostly Cloudy
43°F / 6°C 34°F / 1°C 71% 29.89 in
(1012 mb)
N 16.1 mph
(N 26 kph)
- 10SM
00:40
Mostly Cloudy
43°F / 6°C 34°F / 1°C 71% 29.89 in
(1012 mb)
N 15 mph
(N 24 kph)
- 10SM
Time Weather Temperature Dewpoint Humidity Pressure Winds Precip Visibility


Weather for websites

WeatherForYou.com, LLC is not responsible for any damages or problems caused by this service. Current weather conditions are obtained from the closest station including government and personal stations which may have varying degrees of accuracy. Weather forecasts are derived from the NOAA NDFD. Like all things, this site belongs to Jesus Christ... He just trusts me to maintain it. If you have any questions or comments email webmaster@weatherforyou.com

Copyright © 2015, WeatherForYou.com LLC. All rights reserved.